Location: B�kkszentl�szl�
(48.1000°N, 20.7833°E)
Time: 08:53:10
(UTC+00:00)

Daily predictions for brighter satellites

Satellite Brightness Start Highest point End
(mag) Time Altitude Azimuth Time Altitude Azimuth Time Altitude Azimuth
Cosmos 1850 Rocket 4.3 18:57:40 10° NNW 19:03:00 62° ENE 19:08:17 10° SE
STARLINK-1073 4.1 19:00:13 10° WNW 19:04:20 60° NNE 19:08:26 10° E
SPOT 3 Rocket 4.0 18:59:33 10° S 19:04:39 64° WSW 19:09:49 10° NNW
STARLINK-1192 3.6 19:01:10 10° SW 19:05:18 76° SSE 19:09:27 10° ENE
Cosmos 371 Rocket 3.4 19:01:25 10° S 19:06:12 63° ESE 19:11:02 10° NNE
STARLINK-1108 4.0 19:02:59 10° WNW 19:07:02 53° SW 19:11:04 10° SE
STARLINK-1121 4.0 19:05:11 10° WNW 19:09:19 62° NNE 19:13:25 10° ESE
Spot 2 Rocket 3.8 19:04:52 10° SE 19:09:44 53° ENE 19:14:39 10° N
Terra 3.6 19:06:47 10° ESE 19:10:07 19° ENE 19:13:27 10° NNE
SPOT 1/Viking Rocket 4.3 19:05:28 10° SE 19:10:15 40° ENE 19:15:02 10° N
STARLINK-1244 3.6 19:06:08 10° WSW 19:10:16 81° SSE 19:14:26 10° ENE
Cosmos 2151 Rocket 3.7 19:07:10 10° N 19:11:42 65° ENE 19:16:12 10° SSE
STARLINK-1071 4.1 19:07:59 10° WNW 19:11:59 49° SW 19:16:00 10° SE
H-2A R/B 4.4 19:10:07 10° SW 19:13:59 22° W 19:17:57 10° NW
STARLINK-1106 4.0 19:10:12 10° WNW 19:14:20 65° NNE 19:18:27 10° ESE
STARLINK-1138 3.6 19:11:06 10° WSW 19:15:15 86° SSE 19:19:25 10° ENE
STARLINK-1110 4.2 19:11:47 10° WNW 19:15:46 47° SW 19:19:44 10° SE
Abrixas rocket 2.0 19:14:18 10° W 19:17:13 66° SSW 19:20:09 10° ESE
CZ-2C R/B 4.4 19:12:49 10° N 19:17:15 60° WNW 19:21:43 10° SSW
ERBS 3.7 19:14:17 10° W 19:17:26 41° NNW 19:20:38 10° NE
STARLINK-1112 3.9 19:15:09 10° WNW 19:19:17 68° NNE 19:23:25 10° ESE
STARLINK-1143 3.6 19:16:03 10° WSW 19:20:12 90° NW 19:24:23 10° ENE
STARLINK-1124 4.3 19:17:59 10° WNW 19:21:54 42° SW 19:25:50 10° SSE
STARLINK-1128 3.8 19:20:07 10° WNW 19:24:16 72° NNE 19:28:24 10° ESE
STARLINK-1241 3.7 19:21:04 10° WSW 19:25:13 85° NNW 19:29:24 10° ENE
STARLINK-1122 4.5 19:22:59 10° WNW 19:26:51 39° SW 19:30:37 11° SSE
Cosmos 1300 Rocket 3.8 19:22:24 10° NNW 19:26:52 72° W 19:31:16 10° S
STARLINK-1113 3.8 19:25:06 10° WNW 19:29:16 75° NNE 19:33:25 10° ESE
deb Kosmos-1763 4.2 19:26:00 10° NNW 19:29:34 58° ENE 19:32:49 12° SE
STARLINK-1239 3.8 19:26:02 10° WSW 19:30:11 81° NNW 19:34:22 10° ENE
NOSS 8 (E) 4.1 19:27:01 10° SSW 19:30:15 70° SE 19:33:16 10° NE
USA 215 4.5 19:25:03 10° ENE 19:31:06 41° N 19:37:08 10° WNW
Aureole 2 Rocket 2.4 19:29:40 10° S 19:32:41 45° ESE 19:35:33 10° NE
NOSS 2-2 (D) 4.0 19:30:04 10° S 19:33:10 28° ESE 19:36:32 10° ENE
Meteor 1-15 Rocket 4.5 19:27:37 10° N 19:33:33 67° ENE 19:39:25 10° SSE
STARLINK-1119 3.7 19:30:07 10° WNW 19:34:16 80° NNE 19:38:25 10° ESE
CENTAUR R/B 4.0 19:26:57 10° NW 19:34:17 44° NE 19:42:27 10° ESE
Cosmos 1437 Rocket 2.6 19:30:39 10° S 19:34:25 71° E 19:38:15 10° NNE
STARLINK-1240 3.8 19:31:00 10° WSW 19:35:10 77° NNW 19:39:20 10° ENE
ATLAS 3B R/B 4.3 19:31:27 10° NW 19:37:05 27° NNE 19:42:51 10° E
Cosmos 304 Rocket 3.8 19:33:05 10° S 19:37:46 59° ESE 19:42:29 10° NNE
Cosmos 1378 4.2 19:35:06 12° SSE 19:37:54 27° E 19:41:06 10° NNE
Lacrosse 5 3.0 19:33:49 10° WNW 19:38:20 33° SW 19:42:50 10° SSE
STARLINK-1114 3.6 19:35:04 10° WNW 19:39:14 84° NNE 19:43:11 11° ESE
STARLINK-1203 3.9 19:35:38 10° WSW 19:39:49 73° NNW 19:44:02 10° ENE
STARLINK-1216 3.9 19:36:00 10° WSW 19:40:08 73° NNW 19:44:18 10° ENE
ISS -1.9 19:39:09 10° W 19:41:44 20° SW 19:44:06 11° S
CZ-2C R/B 4.0 19:36:53 10° N 19:42:13 45° WNW 19:47:31 10° SW
STARLINK-1130 (DARKSAT) 3.6 19:40:03 10° WNW 19:44:13 88° NNE 19:47:59 12° ESE
STARLINK-1237 4.0 19:41:00 10° WSW 19:45:08 69° NNW 19:49:17 10° ENE
Cosmos 1674 Rocket 3.5 19:43:30 10° S 19:47:53 84° E 19:52:20 10° N
STARLINK-1084 3.6 19:45:02 10° WNW 19:49:12 87° SW 19:52:46 14° ESE
STARLINK-1202 4.1 19:46:00 10° WSW 19:50:07 66° NNW 19:54:16 10° ENE
NOSS 2-2 (E) 3.2 19:46:52 10° SSW 19:50:21 53° SE 19:54:18 10° NE
Cosmos 1378 Rocket 3.5 19:46:26 10° S 19:50:49 70° E 19:55:11 10° NNE
EXPRESS MD2 3.4 19:48:35 10° SW 19:51:41 58° SSE 19:57:35 10° ENE
Cosmos 1833 Rocket 4.4 19:48:52 10° NW 19:53:30 27° WSW 19:58:07 10° SSW
SL-27 R/B 4.1 19:50:29 10° N 19:53:30 24° ENE 19:55:55 13° ESE
STARLINK-1098 3.6 19:50:02 10° WNW 19:54:11 82° SSW 19:57:33 15° ESE
Cosmos 1766 3.9 19:50:48 10° N 19:54:38 43° ENE 19:57:24 17° SE
Cosmos 2297 3.7 19:49:25 10° SSW 19:55:05 76° ESE 20:00:50 10° NNE
Cosmos 1943 Rocket 2.8 19:50:31 10° S 19:55:31 36° ESE 20:00:36 10° NE
STARLINK-1123 3.6 19:54:59 10° WNW 19:59:08 77° SSW 20:02:19 17° SE
IGS 5A 3.8 19:55:29 11° S 19:59:27 64° W 20:03:36 10° NNW
STARLINK-1246 4.2 19:56:01 10° W 20:00:07 60° NNW 20:04:15 10° ENE
Cosmos 2082 Rocket 3.3 19:55:06 10° NW 20:00:21 38° WSW 20:05:33 10° S
Cosmos 332 Rocket 4.5 19:57:11 10° SW 20:02:02 58° WNW 20:06:53 10° NNE
BREEZE-M DEB 3.0 20:00:05 10° SSW 20:02:24 38° SE 20:07:21 10° ENE
Landsat 7 4.2 19:57:48 10° S 20:02:26 64° WSW 20:07:12 10° NNW
SeaSat 1 4.3 20:02:11 10° E 20:03:58 12° E 20:04:49 11° ESE
STARLINK-1097 3.6 20:00:01 10° WNW 20:04:09 73° SSW 20:07:07 18° SE
STARLINK-1224 4.3 20:01:01 10° W 20:05:06 58° NNW 20:09:13 10° ENE
Meteor 1-23 Rocket 4.3 20:00:27 10° S 20:06:10 89° WNW 20:11:50 10° NNE
Cosmos 1461 3.4 20:04:36 10° SW 20:08:45 64° NW 20:13:09 10° NNE
STARLINK-1099 3.6 20:04:58 10° WNW 20:09:06 68° SSW 20:11:54 20° SE
STARLINK-1225 4.4 20:06:02 10° W 20:10:07 56° NNW 20:14:13 10° ENE
Cosmos 1975 Rocket 3.7 20:07:29 18° SSE 20:10:18 40° E 20:14:26 10° NNE
SAR-Lupe-2 4.2 20:07:04 10° N 20:10:37 58° WNW 20:14:08 10° SSW
Cosmos 2369 Rocket 2.9 20:07:22 15° SSE 20:11:26 35° ESE 20:16:32 10° NE
STARLINK-1104 3.7 20:09:58 10° WNW 20:14:03 63° SSW 20:16:40 21° SE
NOSS 2-2 (C) 3.0 20:11:22 10° SSW 20:14:55 75° SE 20:18:55 10° NE
STARLINK-1230 4.5 20:11:02 10° W 20:15:06 53° NNW 20:19:11 10° ENE
STARLINK-1212 4.2 20:12:25 10° WNW 20:15:22 37° NNE 20:18:17 10° E
STARLINK-1105 4.2 20:12:53 10° WNW 20:15:49 37° NNE 20:18:45 10° E
STARLINK-1247 4.2 20:13:45 10° WNW 20:16:43 38° NNE 20:19:40 10° E
STARLINK-1227 4.2 20:14:15 10° WNW 20:17:12 38° NNE 20:20:08 10° E
STARLINK-1226 4.2 20:15:07 10° WNW 20:18:04 38° NNE 20:21:01 10° E
SPOT 5 3.1 20:14:18 17° SSE 20:18:27 87° WSW 20:23:52 10° NNW
ATLAS 2AS CENTAUR R/B 3.8 20:13:12 15° SSE 20:18:43 32° ESE 20:25:29 10° NE
STARLINK-1215 4.2 20:16:00 10° WNW 20:18:58 38° NNE 20:21:56 10° E
STARLINK-1144 3.8 20:14:57 10° WNW 20:19:03 59° SSW 20:21:27 23° SE
Cosmos 2026 Rocket 4.3 20:15:52 17° SSE 20:20:35 51° E 20:26:43 10° NNE
STARLINK-1217 4.2 20:17:49 10° WNW 20:20:48 39° NNE 20:23:45 10° E
NOSS 3-2 (A) 4.1 20:13:42 10° NW 20:21:10 89° NE 20:27:48 18° SE
STARLINK-1229 4.2 20:18:44 10° WNW 20:21:43 39° NNE 20:24:40 10° E
STARLINK-1270 4.1 20:19:37 10° WNW 20:22:36 39° NNE 20:25:35 10° E
Meteor 1-22 Rocket 4.3 20:16:42 10° N 20:22:39 79° ENE 20:26:47 19° SSE
ATLAS CENTAUR R/B 3.5 20:23:28 12° ESE 20:23:28 12° ESE 20:24:40 10° E
OPS 6432 4.4 20:19:42 10° NW 20:22:52 81° SW 20:24:58 25° SE
ERS-1 Rocket 3.2 20:19:40 16° S 20:23:42 68° WSW 20:28:45 10° NNW
STARLINK-1103 3.8 20:19:56 10° WNW 20:23:59 55° SW 20:26:14 24° SE
STARLINK-1189 4.1 20:21:26 10° WNW 20:24:24 40° NNE 20:27:21 10° E
STARLINK-1188 4.1 20:22:20 10° WNW 20:25:19 40° NNE 20:28:14 10° E
STARLINK-1187 4.0 20:23:25 10° WNW 20:26:24 42° NNE 20:29:06 12° E
STARLINK-1191 4.1 20:24:47 10° WNW 20:27:45 41° NNE 20:30:32 11° E
Okean 2 3.4 20:25:56 21° S 20:28:38 68° E 20:32:48 10° NNE
STARLINK-1221 4.0 20:25:44 10° WNW 20:28:43 41° NNE 20:31:27 12° E
STARLINK-1101 3.9 20:24:55 10° WNW 20:28:57 51° SW 20:31:00 26° SSE
STARLINK-1222 4.0 20:26:35 10° WNW 20:29:34 41° NNE 20:32:16 12° E
STARLINK-1214 4.0 20:27:29 10° WNW 20:30:28 42° NNE 20:33:08 12° E
USA 238 DEB 3.9 20:25:49 10° NW 20:33:02 82° SW 20:38:26 20° SSE
USA 238 3.9 20:25:55 10° NW 20:33:08 82° SW 20:38:33 20° SSE
Cosmos 1953 4.2 20:30:18 10° NNE 20:33:09 19° ENE 20:35:00 14° ESE
STARLINK-1102 4.0 20:29:56 10° WNW 20:33:55 47° SW 20:35:48 27° SSE
Okean 1 Rocket 4.2 20:30:03 10° NNW 20:34:13 40° W 20:37:54 13° SSW
Resurs 01 Rocket 4.2 20:32:06 10° WSW 20:34:14 13° W 20:36:24 10° WNW
Cosmos 968 Rocket 4.0 20:29:17 10° NNW 20:34:19 50° ENE 20:37:31 21° SE
Cosmos 1805 3.7 20:30:44 10° NNW 20:34:36 57° W 20:37:07 20° SSW
Cosmos 1470 3.6 20:31:12 10° N 20:34:50 37° ENE 20:36:30 25° SE
STARLINK-1228 3.8 20:31:32 10° WNW 20:34:59 55° NNE 20:37:42 15° E
Nadezhda 4 Rocket 4.4 20:29:38 10° SSW 20:35:43 63° WNW 20:41:48 10° N
STARLINK-1235 3.7 20:35:09 10° WNW 20:38:20 52° NNE 20:40:36 17° E
STARLINK-1111 4.1 20:34:55 10° WNW 20:38:52 44° SW 20:40:34 28° SSE
Cosmos 1455 Rocket 3.0 20:35:40 10° N 20:40:01 72° E 20:42:18 27° SSE
STARLINK-1073 4.2 20:39:56 10° WNW 20:43:50 41° SW 20:45:22 29° S
SL-8 R/B 4.2 20:39:37 10° W 20:44:11 43° SSW 20:46:17 27° SSE
Terra 2.1 20:44:22 22° S 20:47:24 64° WSW 20:52:09 10° NNW
Cosmos 1758 3.9 20:44:02 10° N 20:47:58 46° ENE 20:49:40 29° SE
STARLINK-1121 4.3 20:44:56 10° WNW 20:48:47 38° SW 20:50:08 29° S
SL-4 R/B 2.7 20:44:37 10° SW 20:49:08 43° SE 20:53:44 10° ENE
ATLAS 3B CENTAUR R/B 4.3 20:42:36 10° SW 20:49:22 18° SSW 20:50:57 17° S
Cosmos 1842 3.2 20:48:52 26° S 20:50:59 90° W 20:54:54 10° N
Abrixas rocket 4.0 20:50:17 10° WSW 20:51:50 17° SW 20:51:50 17° SW
STARLINK-1106 4.5 20:49:58 10° WNW 20:53:45 35° SW 20:54:56 29° S
Cosmos 1503 Rocket 4.4 20:48:56 10° NNW 20:54:09 55° ENE 20:57:15 24° SE
STARLINK-1234 3.2 20:52:55 10° WNW 20:56:11 68° NNE 20:57:44 28° E
Cosmos 2263 4.2 20:57:26 22° S 21:01:01 61° ESE 21:06:33 10° NNE
STARLINK-1209 3.1 20:58:52 10° WNW 21:02:10 76° NNE 21:03:27 34° ESE
Cosmos 1733 4.4 21:04:08 10° NNW 21:07:37 35° W 21:09:32 21° SW
Cosmos 1536 Rocket 3.9 21:08:36 34° SSE 21:10:05 49° E 21:14:19 10° NNE
Meteor 1-21 4.2 21:07:51 22° S 21:11:33 88° W 21:17:12 10° NNE
COSMOS 2455 3.5 21:09:45 27° SSE 21:11:58 36° ESE 21:17:25 10° NE
Cosmos 1354 Rocket 4.1 21:08:10 10° NNW 21:13:28 69° ENE 21:16:12 29° SE
USA 215 3.7 21:07:05 10° ESE 21:13:32 62° NNE 21:19:58 10° NW
JB-3 4.5 21:10:22 10° N 21:14:32 76° WNW 21:16:37 28° SSW
Cosmos 1486 Rocket 4.2 21:10:23 10° NNW 21:15:38 62° WSW 21:18:13 29° S
Cosmos 1271 Rocket 2.6 21:14:22 40° S 21:15:42 78° E 21:19:38 10° NNE
Cosmos 1833 4.1 21:10:36 10° NNW 21:16:16 87° ENE 21:19:13 30° SSE
Spot 4 4.0 21:14:22 31° SE 21:16:38 68° ENE 21:21:28 10° N
Cosmos 1544 Rocket 3.7 21:12:28 10° NNW 21:16:47 66° W 21:18:39 32° SSW
Cosmos 1242 Rocket 2.7 21:15:26 33° SSW 21:16:57 69° WNW 21:20:38 10° N
STARLINK-1206 4.5 21:14:13 10° WNW 21:18:16 50° NNE 21:22:19 10° E
Cosmos 2297 Rocket 4.5 21:14:37 10° N 21:18:28 18° NE 21:22:18 10° E
STARLINK-60 2.7 21:20:10 42° SW 21:21:07 76° SSE 21:24:18 10° ENE
STARLINK-1205 4.4 21:19:11 10° WNW 21:23:15 52° NNE 21:27:18 10° E
CENTAUR R/B 3.2 21:17:39 10° NW 21:25:40 73° SW 21:31:08 26° SSE
Cosmos 1707 2.6 21:24:35 43° S 21:25:46 81° E 21:29:40 10° NNE
Cosmos 1174 4.3 21:26:35 32° E 21:26:35 32° E 21:29:29 10° NE
STARLINK-1218 4.3 21:24:11 10° WNW 21:28:16 53° NNE 21:32:20 10° E
SL-27 R/B 3.9 21:25:32 10° NW 21:28:35 27° WSW 21:29:28 24° SW
ATLAS 3B R/B 2.9 21:22:09 10° NW 21:28:56 71° NE 21:33:56 20° SE
NOSS 3-2 (C) 4.2 21:23:22 10° NW 21:30:48 61° WSW 21:35:37 27° SSE
Cosmos 1726 2.2 21:28:16 10° N 21:31:59 65° E 21:32:50 48° SE
ALOS 2 3.2 21:30:24 30° SE 21:32:08 47° ENE 21:36:21 10° N
STARLINK-1254 4.2 21:29:10 10° WNW 21:33:15 56° NNE 21:37:06 11° E
Meteor 1-16 Rocket 4.3 21:27:51 10° N 21:33:22 65° ENE 21:35:51 32° SSE
Cosmos 1867 3.5 21:30:09 10° NW 21:35:39 79° SW 21:38:06 34° SSE
COSMOS 2487 2.5 21:32:58 10° NNW 21:36:26 66° ENE 21:37:03 53° ESE
STARLINK-1231 4.2 21:34:08 10° WNW 21:38:15 58° NNE 21:41:52 13° E
Cosmos 1992 Rocket 3.9 21:36:08 27° SSW 21:39:02 87° WNW 21:44:17 10° NNE
Cosmos 1943 Rocket 3.3 21:33:58 10° SW 21:39:12 42° NW 21:44:32 10° NNE
NOSS 3-4 (A) 3.3 21:36:31 20° SSW 21:40:44 76° SE 21:47:06 10° NE
NOSS 3-4 (C) 3.3 21:36:40 21° SSW 21:40:50 75° SE 21:47:13 10° NE
SeaSat 1 2.4 21:37:16 10° NNE 21:42:13 76° ESE 21:44:35 32° SSW
Cosmos 1606 Rocket 4.3 21:38:55 10° N 21:43:02 41° ENE 21:44:29 30° ESE
EO 1 Del DPAF 3.4 21:39:28 10° N 21:43:13 68° WNW 21:44:29 39° SW
STARLINK-1232 4.1 21:39:08 10° WNW 21:43:15 60° NNE 21:46:40 14° E
STARLINK-1208 4.0 21:44:06 10° WNW 21:48:13 63° NNE 21:51:25 16° E
Cosmos 2315 Rocket 4.2 21:42:51 10° N 21:49:01 63° ENE 21:52:08 30° SSE
STARLINK-29 3.4 21:51:41 49° E 21:51:41 49° E 21:54:11 10° ENE
STARLINK-1212 3.3 21:48:13 10° WNW 21:50:47 50° W 21:50:47 50° W
Meteor 2-10 4.1 21:46:43 10° NNW 21:51:43 66° W 21:53:43 36° SSW
STARLINK-1105 3.3 21:48:42 10° WNW 21:51:13 49° W 21:51:13 49° W
STARLINK-1247 3.3 21:49:35 10° WNW 21:52:06 49° W 21:52:06 49° W
STARLINK-1227 3.4 21:50:04 10° WNW 21:52:32 47° W 21:52:32 47° W
STARLINK-1271 3.9 21:49:07 10° WNW 21:53:15 66° NNE 21:56:14 18° E
BREEZE-M DEB (TANK) 3.0 21:43:32 10° W 21:53:33 80° N 21:56:38 10° E
STARLINK-1226 3.4 21:50:56 10° WNW 21:53:24 46° W 21:53:24 46° W
RESURS DK-1 3.2 21:53:57 32° ESE 21:54:06 32° ESE 21:57:50 10° NE
BREEZE-M DEB (TANK) 2.8 21:50:42 10° WNW 21:54:14 85° SSW 21:58:53 10° ESE
STARLINK-1215 3.5 21:51:50 10° WNW 21:54:16 45° W 21:54:16 45° W
S3M 4.2 21:48:55 10° NNW 21:55:00 63° W 21:58:11 29° SSW
Cosmos 2369 Rocket 3.2 21:49:58 10° SW 21:55:22 43° NW 22:00:46 10° NNE
Cosmos 2227 Rocket 4.0 21:51:06 10° N 21:55:48 26° NE 22:00:29 10° E
STARLINK-1217 3.6 21:53:39 10° WNW 21:56:00 43° W 21:56:00 43° W
Cosmos 2084 4.4 21:57:06 32° ESE 21:57:08 32° ESE 22:01:08 10° ENE
STARLINK-1229 3.6 21:54:34 10° WNW 21:56:54 41° W 21:56:54 41° W
STARLINK-1154 3.8 21:54:05 10° WNW 21:58:14 69° NNE 22:01:00 20° ESE
STARLINK-1270 3.7 21:55:27 10° WNW 21:57:45 40° W 21:57:45 40° W
STARLINK-1189 3.8 21:57:15 10° WNW 21:59:28 38° W 21:59:28 38° W
STARLINK-1188 3.8 21:58:10 10° WNW 22:00:22 37° W 22:00:22 37° W
ATLAS CENTAUR R/B 1.3 21:59:35 37° SW 22:01:15 89° SE 22:05:23 10° NE
Cosmos 1340 Rocket 3.0 21:57:32 10° NNW 22:01:33 62° W 22:02:31 46° SSW
Cosmos 1626 3.8 22:01:28 21° E 22:01:52 22° E 22:04:47 10° NE
STARLINK-1187 4.1 21:59:17 10° WNW 22:01:14 31° W 22:01:14 31° W
STARLINK-1197 3.8 21:59:02 10° WNW 22:03:12 73° NNE 22:05:46 22° ESE
Aureole 3 2.5 22:00:10 10° NNW 22:03:24 80° W 22:03:25 80° WSW
STARLINK-1191 4.0 22:00:37 10° WNW 22:02:40 34° W 22:02:40 34° W
Thor Agena Rocket 4.2 21:58:46 10° N 22:03:54 52° WNW 22:07:12 21° SW
STARLINK-1221 4.0 22:01:34 10° WNW 22:03:34 33° W 22:03:34 33° W
Cosmos 1025 Rocket 4.0 22:02:58 24° SW 22:04:57 39° WNW 22:09:02 10° N
STARLINK-1222 4.1 22:02:25 10° WNW 22:04:23 32° W 22:04:23 32° W
STARLINK-1214 4.1 22:03:19 10° WNW 22:05:16 31° W 22:05:16 31° W
Cosmos 1908 3.1 22:02:50 10° N 22:06:40 76° E 22:07:21 56° SSE
Meteor 2-19 Rocket 4.5 22:03:37 31° SSW 22:06:48 80° W 22:12:58 10° N
Nimbus 7 Rocket 4.4 22:00:53 10° NNE 22:07:01 87° ESE 22:10:05 31° SSW
STARLINK-1198 3.7 22:04:01 10° WNW 22:08:11 77° NNE 22:10:32 25° ESE
Cosmos 1656 Rocket 4.1 22:04:50 19° SW 22:08:51 61° WNW 22:14:22 10° NNE
ATLAS 2AS CENTAUR R/B 3.2 22:01:10 10° SW 22:09:10 78° NW 22:17:08 10° NE
BREEZE M DEB (TANK) 3.6 22:07:18 10° W 22:08:33 24° WNW 22:08:33 24° WNW
Cosmos 1953 3.1 22:06:00 10° NNW 22:09:46 41° W 22:10:41 35° SW
BREEZE-M DEB (TANK) 3.9 22:02:25 10° WNW 22:11:11 39° SW 22:11:56 36° SSW
STARLINK-1228 4.4 22:08:54 10° WNW 22:11:07 29° WSW 22:11:07 29° WSW
STARLINK-1199 3.6 22:09:01 10° WNW 22:13:11 81° NNE 22:15:20 27° ESE
Cosmos 2292 Rocket 3.3 22:13:24 49° SW 22:14:02 59° W 22:17:13 10° N
Landsat 4 4.2 22:12:09 10° NNE 22:15:42 41° E 22:16:01 40° ESE
FALCON 9 R/B 4.2 22:19:35 20° SE 22:19:35 20° SE 22:24:44 10° ESE
KORONAS-FOTON 3.7 22:17:21 60° S 22:17:59 85° E 22:21:52 10° N
STARLINK-1210 3.6 22:13:59 10° WNW 22:18:09 85° NNE 22:20:06 30° ESE
SL-4 R/B 3.2 22:20:18 17° NW 22:20:18 17° NW 22:21:07 10° NW
Cosmos 1777 Rocket 3.9 22:16:00 10° NNW 22:21:16 87° WSW 22:23:18 39° SSE
EO 1 Delta rocket 4.4 22:17:16 10° NNE 22:22:53 55° E 22:24:37 37° SSE
STARLINK-1219 3.5 22:18:57 10° WNW 22:23:07 89° NNE 22:24:52 34° ESE
ATLAS 5 CENTAUR R/B 2.0 22:21:46 21° WSW 22:23:38 46° NW 22:25:44 10° NNE
Cosmos 1892 Rocket 3.7 22:25:06 45° SSE 22:26:11 61° E 22:30:30 10° NNE
STARLINK-52 3.0 22:26:27 64° W 22:26:49 74° NNW 22:30:02 10° ENE
Cosmos 2228 3.0 22:23:22 10° NNW 22:27:37 72° W 22:28:36 50° SSW
STARLINK-1211 3.5 22:23:57 10° WNW 22:28:07 86° SSW 22:29:40 37° ESE
Cosmos 1726 Rocket 3.4 22:24:03 10° N 22:28:24 87° W 22:29:31 50° S
SL-4 R/B 2.6 22:23:57 10° WSW 22:28:47 72° NNW 22:33:37 10° ENE
STARLINK-1261 4.5 22:32:58 25° E 22:32:58 25° E 22:34:32 10° ENE
STARLINK-1325 4.5 22:33:19 26° E 22:33:19 26° E 22:34:54 10° ENE
STARLINK-1338 4.0 22:32:46 40° ESE 22:32:46 40° ESE 22:35:43 10° ENE
STARLINK-1333 4.5 22:33:40 26° E 22:33:40 26° E 22:35:16 10° ENE
STARLINK-1334 4.4 22:33:58 26° E 22:33:58 26° E 22:35:35 10° ENE
Cosmos 921 Rocket 3.3 22:31:52 44° SE 22:32:41 51° ESE 22:36:55 10° NNE
Cosmos 1300 3.3 22:28:58 10° N 22:32:42 48° ENE 22:33:33 40° ESE
STARLINK-1326 4.4 22:34:18 26° E 22:34:18 26° E 22:35:55 10° ENE
STARLINK-1245 3.5 22:28:56 10° WNW 22:33:05 81° SSW 22:34:26 41° SE
YAOGAN 11 4.0 22:31:51 46° SSE 22:33:07 85° ENE 22:37:27 10° NNW
STARLINK-1323 4.4 22:34:36 27° E 22:34:36 27° E 22:36:15 10° ENE
STARLINK-1349 4.4 22:34:57 27° E 22:34:57 27° E 22:36:36 10° ENE
STARLINK-1336 4.4 22:35:16 27° E 22:35:16 27° E 22:36:56 10° ENE
STARLINK-1331 4.4 22:35:35 27° E 22:35:35 27° E 22:37:17 10° ENE
STARLINK-1344 4.4 22:35:54 28° E 22:35:54 28° E 22:37:36 10° ENE
STARLINK-1343 4.3 22:36:13 28° E 22:36:13 28° E 22:37:57 10° ENE
Meteor 1-24 Rocket 3.8 22:33:05 37° SSE 22:35:05 61° E 22:40:30 10° NNE
STARLINK-1346 4.3 22:36:30 29° E 22:36:30 29° E 22:38:19 10° ENE
STARLINK-1328 4.3 22:36:54 28° E 22:36:54 28° E 22:38:38 10° ENE
STARLINK-1354 4.3 22:37:13 29° E 22:37:13 29° E 22:38:58 10° ENE
STARLINK-1347 4.3 22:37:32 29° E 22:37:32 29° E 22:39:18 10° ENE
STARLINK-1357 4.3 22:37:53 29° E 22:37:53 29° E 22:39:40 10° ENE
STARLINK-1335 4.2 22:38:12 30° E 22:38:12 30° E 22:40:00 10° ENE
CZ-4C R/B 3.7 22:36:20 17° ESE 22:37:14 17° ESE 22:40:49 10° ENE
STARLINK-1327 4.2 22:38:30 30° E 22:38:30 30° E 22:40:19 10° ENE
STARLINK-1340 4.2 22:38:51 30° E 22:38:51 30° E 22:40:41 10° ENE
STARLINK-1356 4.2 22:39:10 30° E 22:39:10 30° E 22:41:00 10° ENE
STARLINK-1233 3.5 22:33:53 10° WNW 22:38:02 76° SSW 22:39:11 46° SE
STARLINK-1345 4.2 22:39:28 31° E 22:39:28 31° E 22:41:19 10° ENE
STARLINK-1355 4.2 22:39:47 31° E 22:39:47 31° E 22:41:39 10° ENE
STARLINK-1371 3.7 22:39:09 47° ESE 22:39:09 47° ESE 22:42:21 10° ENE
STARLINK-1321 4.1 22:40:09 31° E 22:40:09 31° E 22:42:02 10° ENE
STARLINK-1358 4.1 22:40:29 32° E 22:40:29 32° E 22:42:22 10° ENE
STARLINK-1332 4.1 22:40:48 32° E 22:40:48 32° E 22:42:42 10° ENE
Cosmos 1437 3.7 22:40:11 33° E 22:40:11 33° E 22:42:42 10° NNE
STARLINK-1348 4.1 22:41:05 32° E 22:41:05 32° E 22:43:00 10° ENE
STARLINK-1143 4.5 22:36:09 10° WNW 22:40:12 51° NNE 22:44:15 10° E
STARLINK-1330 4.1 22:41:27 33° E 22:41:27 33° E 22:43:22 10° ENE
STARLINK-1363 4.1 22:41:46 33° E 22:41:46 33° E 22:43:44 10° ENE
STARLINK-1337 4.0 22:42:06 33° E 22:42:06 33° E 22:44:03 10° ENE
STARLINK-1342 4.0 22:42:25 34° E 22:42:25 34° E 22:44:23 10° ENE
STARLINK-1364 4.0 22:42:45 34° E 22:42:45 34° E 22:44:45 10° ENE
STARLINK-1376 4.0 22:43:04 34° E 22:43:04 34° E 22:45:04 10° ENE
STARLINK-1341 3.6 22:42:21 51° ESE 22:42:21 51° ESE 22:45:42 10° ENE
STARLINK-1360 4.0 22:43:23 35° E 22:43:23 35° E 22:45:25 10° ENE
Cosmos 220 Rocket 4.3 22:41:33 45° SSE 22:42:30 55° ESE 22:46:52 10° NNE
STARLINK-1361 4.0 22:43:43 35° E 22:43:43 35° E 22:45:45 10° ENE
Resurs 1-4 Rocket 4.4 22:41:14 10° ENE 22:42:57 11° E 22:44:39 10° ESE
STARLINK-1367 3.9 22:44:00 36° E 22:44:00 36° E 22:46:06 10° ENE
STARLINK-1204 3.5 22:38:53 10° WNW 22:43:01 71° SSW 22:43:59 49° SE
STARLINK-1366 3.9 22:44:23 36° E 22:44:23 36° E 22:46:26 10° ENE
SJ 16-02 2.7 22:40:23 10° N 22:44:28 34° ENE 22:47:11 18° ESE
STARLINK-1339 3.6 22:45:37 50° ESE 22:45:37 50° ESE 22:48:42 10° ENE
STARLINK-1241 4.4 22:41:09 10° WNW 22:45:15 53° NNE 22:49:18 10° E
STARLINK-1374 3.5 22:45:33 55° SE 22:45:33 55° SE 22:49:03 10° ENE
STARLINK-1238 3.5 22:43:53 10° WNW 22:48:01 67° SSW 22:48:47 53° SSE
Cosmos 1674 3.6 22:48:20 32° WSW 22:49:14 37° WNW 22:52:48 10° N
Helios 1B rocket 2.9 22:45:15 10° NNE 22:49:16 47° E 22:50:09 40° SE
STARLINK-1239 4.3 22:46:08 10° WNW 22:50:13 55° NNE 22:54:18 10° E
STARLINK-1377 3.3 22:52:00 62° SSE 22:52:03 62° SSE 22:55:48 10° ENE
STARLINK-1201 3.5 22:48:52 10° WNW 22:52:58 62° SSW 22:53:33 55° S
Cosmos 1244 Rocket 4.4 22:51:03 34° S 22:53:58 87° W 23:00:11 10° N
STARLINK-1240 4.2 22:51:06 10° WNW 22:55:12 57° NNE 22:59:18 10° E
STARLINK-1353 3.2 22:55:17 64° SSE 22:55:27 66° SSE 22:59:12 10° ENE
USA 215 3.3 22:52:57 27° SSE 22:56:36 57° SW 23:03:03 10° WNW
CZ-2D R/B 4.3 22:54:00 10° NE 22:56:49 14° E 22:59:38 10° ESE
COSMOS 2455 3.6 22:52:50 14° WSW 22:57:46 50° NW 23:03:38 10° NNE
STARLINK-1206 3.6 22:53:52 10° WNW 22:57:57 58° SSW 22:58:21 55° S
Cosmos 1745 Rocket 4.3 22:55:32 29° SSE 22:58:31 55° E 23:04:29 10° NNE
STARLINK-1375 3.2 22:58:33 65° S 22:58:51 69° SSE 23:02:38 10° ENE
Cosmos 2219 3.2 22:53:32 10° NNW 22:59:14 84° ENE 23:02:18 28° SSE
STARLINK-1216 4.2 22:56:04 10° WNW 23:00:11 59° NNE 23:04:17 10° E
STARLINK-1203 4.2 22:56:09 10° WNW 23:00:19 60° NNE 23:04:30 10° E
STARLINK-1352 3.1 23:01:56 70° S 23:02:08 72° SSE 23:05:46 10° ENE
STARLINK-1350 3.2 23:01:49 63° SSW 23:02:15 73° SSE 23:06:02 10° ENE
Helios 1A 3.8 23:01:35 34° WSW 23:02:20 37° W 23:06:14 10° NNW
STARLINK-1205 3.6 22:58:51 10° WNW 23:02:54 54° SW 23:03:07 53° SSW
Cosmos 2297 Rocket 2.3 22:57:50 10° NNW 23:03:32 75° ENE 23:07:00 24° SE
Meteor 2-16 Rocket 4.4 23:00:55 33° S 23:03:47 77° E 23:09:56 10° NNE
STARLINK-1237 4.1 23:01:03 10° WNW 23:05:11 62° NNE 23:09:18 10° ESE
PSLV R/B 3.6 23:02:03 10° NNE 23:06:35 73° ESE 23:07:54 44° S
Lacrosse 4 Rocket 3.0 23:03:20 10° NNW 23:07:19 33° NE 23:11:10 10° ESE
STARLINK-1218 3.7 23:03:52 10° WNW 23:07:53 50° SW 23:07:55 50° SW
ALOS 2 4.3 23:07:47 19° WSW 23:08:43 20° W 23:11:59 10° NW
STARLINK-1368 3.2 23:08:27 56° SW 23:09:10 80° SSE 23:12:58 10° ENE
STARLINK-1202 4.0 23:06:02 10° WNW 23:10:11 65° NNE 23:14:18 10° ESE
Timation 2 Rocket 4.4 23:04:47 10° NW 23:10:43 45° WSW 23:12:55 32° SSW
Cosmos 2058 Rocket 3.5 23:06:31 10° NNW 23:10:50 49° W 23:11:58 39° SW
Cosmos 1455 3.8 23:07:51 10° NNE 23:11:08 28° ENE 23:12:54 19° ESE
Meteor 2-10 Rocket 4.4 23:06:24 10° N 23:11:24 44° ENE 23:14:39 19° SE
STARLINK-1369 3.2 23:11:47 52° SW 23:12:39 84° SSE 23:16:27 10° ENE
STARLINK-1254 3.9 23:08:51 10° WNW 23:12:41 46° SW 23:12:41 46° SW
Cosmos 1626 Rocket 3.6 23:11:50 42° SSE 23:13:07 66° E 23:17:26 10° NNE
Cosmos 2082 4.5 23:07:50 10° NNW 23:13:22 49° NE 23:18:48 10° SE
Meteor 1-29 3.2 23:10:09 10° NNE 23:13:28 51° E 23:13:48 49° SE
Cosmos 1898 Rocket 4.0 23:08:38 10° NNW 23:13:56 59° ENE 23:17:36 20° SE
STARLINK-1372 3.3 23:15:07 47° WSW 23:16:08 88° SE 23:19:57 10° ENE
Meteor 2-5 Rocket 4.3 23:14:12 27° SW 23:16:55 49° WNW 23:22:24 10° N
STARLINK-1231 4.0 23:13:50 10° WNW 23:17:27 42° SW 23:17:27 42° SW
ATLAS 3B R/B 3.6 23:13:23 10° NW 23:19:10 30° WSW 23:21:10 26° SW
SeaSat 1 4.5 23:15:30 10° N 23:19:17 23° NW 23:23:04 10° W
STARLINK-1378 3.3 23:18:28 43° WSW 23:19:37 88° NNW 23:23:26 10° ENE
SL-14 R/B 3.8 23:19:11 39° WSW 23:20:05 47° WNW 23:23:49 10° N
STARLINK-1246 3.8 23:16:01 10° WNW 23:20:10 71° NNE 23:24:19 10° ESE
Cosmos 192 4.4 23:18:27 39° S 23:20:15 69° ESE 23:25:13 10° NNE
IRAS Rocket 4.4 23:18:20 24° SSE 23:21:47 71° ENE 23:27:19 10° NNW
FALCON 9 DEB 3.9 23:20:07 19° W 23:22:20 51° NNW 23:25:43 10° ENE
STARLINK-1232 4.2 23:18:52 10° WNW 23:22:15 38° WSW 23:22:15 38° WSW
STARLINK-1379 3.3 23:21:52 40° WSW 23:23:08 85° NNW 23:26:58 10° ENE
STARLINK-1329 3.3 23:23:14 38° WSW 23:24:36 84° NNW 23:28:25 10° ENE
STARLINK-1224 3.7 23:20:59 10° WNW 23:25:09 75° NNE 23:29:18 10° ESE
SL-16 R/B 3.5 23:19:30 10° SE 23:25:16 44° ENE 23:31:05 10° N
STARLINK-29 4.4 23:24:16 10° W 23:27:17 37° N 23:30:19 10° ENE
STARLINK-1208 4.4 23:23:51 10° WNW 23:27:00 34° WSW 23:27:00 34° WSW
STARLINK-1362 3.4 23:26:40 35° WSW 23:28:10 80° NNW 23:32:00 10° ENE
ATLAS CENTAUR R/B 1.3 23:27:13 10° WNW 23:29:40 76° SW 23:34:49 10° SE
Cosmos-2242 4.3 23:25:52 10° N 23:29:48 35° ENE 23:32:30 17° SE
STARLINK-1225 3.7 23:25:59 10° WNW 23:30:09 79° NNE 23:34:18 10° ESE
Cosmos 1656 3.7 23:27:53 34° S 23:30:24 70° ESE 23:36:00 10° NNE
STARLINK-1373 3.4 23:30:05 32° WSW 23:31:45 77° NNW 23:35:36 10° ENE
RESURS DK-1 3.9 23:29:48 18° W 23:32:09 30° NW 23:35:51 10° NNE
Cosmos 1386 Rocket 4.4 23:29:51 31° S 23:32:59 89° E 23:39:15 10° N
STARLINK-1365 3.5 23:31:12 30° WSW 23:33:00 75° NNW 23:36:51 10° ENE
STARLINK-1230 3.6 23:30:58 10° WNW 23:35:07 83° NNE 23:39:16 10° ESE
Cosmos 1697 Rocket 3.3 23:32:47 27° SSE 23:35:22 44° ESE 23:40:43 10° NE
STARLINK-1390 3.5 23:33:35 29° WSW 23:35:23 74° NNW 23:39:12 10° ENE
Cosmos 1626 3.4 23:36:00 25° W 23:36:58 29° WNW 23:40:16 10° N
Cosmos 1812 Rocket 3.5 23:32:40 10° N 23:37:10 88° W 23:38:55 37° S
DELTA 2 DEB (DPAF) 4.4 23:35:37 25° SE 23:38:05 64° ENE 23:42:31 10° N
SL-19 R/B 4.4 23:32:46 10° NNE 23:38:18 70° ESE 23:41:19 29° S
BREEZE-M R/B 3.0 23:31:59 10° WSW 23:38:27 77° SSE 23:41:45 10° ENE
NOSS 7 (H) 4.5 23:39:41 49° SE 23:39:44 49° SE 23:42:37 10° NE
STARLINK-1243 3.5 23:35:57 10° WNW 23:40:07 88° NNE 23:44:16 10° ESE
Cosmos 990 Rocket 3.9 23:34:54 10° NNW 23:40:11 85° WSW 23:43:10 27° SSE
Cosmos 2227 Rocket 2.2 23:34:44 10° NNW 23:40:24 69° WSW 23:43:30 27° S
ATLAS CENTAUR R/B 3.8 23:37:38 10° WNW 23:40:39 19° NNW 23:43:33 10° NNE
CZ-4 R/B 4.3 23:37:06 10° N 23:41:44 50° WNW 23:43:50 29° SW
STARLINK-1236 3.5 23:40:55 10° WNW 23:45:05 88° SSW 23:49:14 10° ESE
USA 81 4.2 23:42:28 29° S 23:45:12 70° E 23:50:29 10° N
Cosmos 1825 Rocket 4.3 23:44:53 26° SSE 23:46:52 45° E 23:51:01 10° NNE
Cosmos 1709 Rocket 4.1 23:44:11 26° S 23:47:43 72° E 23:53:51 10° NNE
Alouette 2 Rocket 3.9 23:42:49 10° NNW 23:48:27 72° ENE 23:50:43 26° SSE
Cosmos 1602 Rocket 3.6 23:47:23 38° SSW 23:48:57 69° WNW 23:53:17 10° N
SL-08 ROCKET BODY 4.4 23:46:46 29° SSW 23:49:47 66° WNW 23:55:37 10° N
STARLINK 1040 4.4 23:55:45 20° ESE 23:55:45 20° ESE 23:57:01 10° E
STARLINK-1269 3.5 23:50:53 10° WNW 23:55:03 78° SSW 23:59:11 10° SE
